Powrót do katalogu

STARLINK-32695

AktywnyŁącznośćVLEO
NORAD 62866·PAYLOAD·🇺🇸 United States

Wystrzelony Feb 1, 2025 z Vandenberg Space Force Base

Loading…

Następne Przeloty (najbliższe 24 godziny)

TLE

ŚwieżeSource: CelesTrak SupGP

Epoka: Sep 15, 2026, 02:12 UTC

1 62866C 25022N   26258.09215278  .00067637  00000+0  19980-2 0  2581
2 62866  53.1584 325.3015 0001200  90.0011 238.4050 15.34362487    15

Śledź STARLINK-32695 w czasie rzeczywistym z AllMySat

Download on the App Store